Change the Weather History Date:

Saturday, September 22, 2012

  Actual Average Record
Temperature  
Mean Temperature 44 °F 54 °F  
Max Temperature 61 °F 68 °F 93 °F (1938)
Min Temperature 26 °F 39 °F 19 °F (1983)
Degree Days  
Heating Degree Days 21 12  
Month to date heating degree days 164 166  
Since 1 July heating degree days 189 237  
Cooling Degree Days 0 0  
Month to date cooling degree days 17 24  
Year to date cooling degree days 529 453  
Moisture  
Dew Point 21 °F    
Average Humidity 47    
Maximum Humidity 78    
Minimum Humidity 15    
Precipitation  
Precipitation 0.00 in 0.04 in 1.48 in (1959)
Month to date precipitation T 0.78  
Year to date precipitation 9.51 11.90  
Snow  
Snow 0.00 in 0.10 in 0.70 in (1965)
Month to date snowfall 0.0 0.1  
Since 1 July snowfall 0.0 0.1  
Since 1 September snowfall 0.0 0.1  
Snow Depth 0.00 in    
Sea Level Pressure  
Sea Level Pressure 30.31 in    
Wind  
Wind Speed 4 mph (East)    
Max Wind Speed 10 mph    
Max Gust Speed 15 mph    
Visibility 10 miles    
Events      
T = Trace of Precipitation, MM = Missing Value Source: NWS Daily Summary

Daily Weather History Graph

Daily Weather History Graph

Search for Another Location

Airport or City:

Trip Planner

Search our weather history database for the weather conditions in past years. The results will help you decide how hot, cold, wet, or windy it might be!

Date:

Astronomy

Sep. 22, 2012 Rise Set
Actual Time 7:41 AM CDT 7:51 PM CDT
Civil Twilight 7:10 AM CDT 8:22 PM CDT
Nautical Twilight 6:34 AM CDT 8:58 PM CDT
Astronomical Twilight 5:56 AM CDT 9:36 PM CDT
Moon 3:29 PM CDT (9/22) No Moon Set
Length of Visible Light 13h 11m
Length of Day
12h 09m
Waxing Crescent, 49% of the Moon is Illuminated
Sep 22
Waxing Crescent
Sep 22
First Quarter
Sep 29
Full
Oct 8
Last Quarter
Oct 15
New

Hourly Weather History & Observations

Time (CDT) Temp. Windchill Dew Point Humidity Pressure Visibility Wind Dir Wind Speed Gust Speed Precip Events Conditions
12:52 AM 43.0 °F 40.3 °F 21.0 °F 42% 30.25 in 10.0 mi East 4.6 mph - N/A   Clear
1:52 AM 39.9 °F 37.8 °F 23.0 °F 51% 30.27 in 10.0 mi East 3.5 mph - N/A   Clear
2:52 AM 39.0 °F 35.7 °F 23.0 °F 53% 30.30 in 10.0 mi ENE 4.6 mph - N/A   Clear
3:52 AM 37.0 °F 32.4 °F 23.0 °F 57% 30.31 in 10.0 mi NE 5.8 mph - N/A   Clear
4:52 AM 34.0 °F 29.8 °F 23.0 °F 64% 30.32 in 10.0 mi NNE 4.6 mph - N/A   Clear
5:52 AM 30.9 °F 26.2 °F 23.0 °F 72% 30.34 in 10.0 mi NE 4.6 mph - N/A   Clear
6:52 AM 30.0 °F 25.2 °F 24.1 °F 79% 30.35 in 10.0 mi NNE 4.6 mph - N/A   Clear
7:52 AM 28.9 °F 22.8 °F 23.0 °F 78% 30.37 in 10.0 mi NNE 5.8 mph - N/A   Clear
8:52 AM 36.0 °F - 25.0 °F 64% 30.37 in 10.0 mi Calm Calm - N/A   Clear
9:52 AM 41.0 °F 39.0 °F 25.0 °F 53% 30.38 in 10.0 mi East 3.5 mph - N/A   Clear
10:52 AM 46.0 °F 41.9 °F 24.1 °F 42% 30.38 in 10.0 mi SE 8.1 mph - N/A   Clear
11:52 AM 50.0 °F - 23.0 °F 35% 30.37 in 10.0 mi Variable 5.8 mph - N/A   Clear
12:52 PM 53.1 °F - 21.9 °F 30% 30.35 in 10.0 mi South 6.9 mph - N/A   Clear
1:52 PM 55.0 °F - 19.0 °F 24% 30.33 in 10.0 mi Calm Calm - N/A   Clear
2:52 PM 57.2 °F - 17.6 °F 21% 30.27 in 10.0 mi Calm Calm - N/A   Clear
3:52 PM 59.0 °F - 12.9 °F 16% 30.29 in 10.0 mi South 4.6 mph - N/A   Clear
4:52 PM 60.1 °F - 12.0 °F 15% 30.28 in 10.0 mi East 4.6 mph - N/A   Clear
5:52 PM 60.1 °F - 12.0 °F 15% 30.27 in 10.0 mi SE 9.2 mph - N/A   Clear
6:52 PM 59.0 °F - 16.0 °F 19% 30.26 in 10.0 mi East 9.2 mph - N/A   Clear
7:52 PM 53.1 °F - 19.9 °F 27% 30.27 in 10.0 mi ENE 8.1 mph - N/A   Clear
8:52 PM 48.0 °F - 21.9 °F 36% 30.28 in 10.0 mi Variable 3.5 mph - N/A   Clear
9:52 PM 46.9 °F - 21.0 °F 36% 30.28 in 10.0 mi East 4.6 mph - N/A   Clear
10:52 PM 46.0 °F - 19.0 °F 34% 30.28 in 10.0 mi Calm Calm - N/A   Clear
11:52 PM 45.0 °F 43.5 °F 21.0 °F 39% 30.27 in 10.0 mi East 3.5 mph - N/A   Clear